User: anonymous   Login
Location: Huntington Beach
(33.6600°N, 117.9980°W)
Time: 18:35:58
(UTC-08:00)
Language:

SL-16 R/B - Orbit

View from above orbital plane
View from above orbital plane
View from above satellite
View from above satellite

Ground track
Ground track

The orbit data is extracted from the following two-line orbital elements,

1 28353U 04021B   17053.20767514  .00000199  00000-0  12918-3 0  9999
2 28353  71.0017 319.5968 0004765 350.4893   9.6138 14.14186835655907
Epoch (UTC): 22 February 2017 04:59:03
Eccentricity: 0.0004765
inclination: 71.0017°
perigee height: 841 km
apogee height: 848 km
right ascension of ascending node: 319.5968°
argument of perigee: 350.4893°
revolutions per day: 14.14186835
mean anomaly at epoch: 9.6138°
orbit number at epoch: 65590

The dashed part of the orbit path shows where the satellite is in the earth's shadow,  

DLR